Change the Weather History Date:

Saturday, May 17, 2014

  Actual Average Record
Temperature  
Mean Temperature 65 °F -  
Max Temperature 73 °F 77 °F 85 °F (1991)
Min Temperature 57 °F 59 °F 41 °F (1984)
Growing Degree Days 15 (Base 50)    
Moisture  
Dew Point 46 °F    
Average Humidity 51    
Maximum Humidity 72    
Minimum Humidity 31    
Precipitation  
Precipitation 0.00 in - - ()
Sea Level Pressure  
Sea Level Pressure 30.11 in    
Wind  
Wind Speed 12 mph (NW)    
Max Wind Speed 17 mph    
Max Gust Speed 31 mph    
Visibility 10 miles    
Events      
Averages and records for this station are not official NWS values.
T = Trace of Precipitation, MM = Missing Value Source: NWS Daily Summary

Daily Weather History Graph

Daily Weather History Graph

Search for Another Location

Airport or City:

Trip Planner

Search our weather history database for the weather conditions in past years. The results will help you decide how hot, cold, wet, or windy it might be!

Date:

Astronomy

May. 17, 2014 Rise Set
Actual Time 6:02 AM EDT 8:04 PM EDT
Civil Twilight 5:34 AM EDT 8:32 PM EDT
Nautical Twilight 4:59 AM EDT 9:06 PM EDT
Astronomical Twilight 4:23 AM EDT 9:43 PM EDT
Moon 11:04 PM EDT (5/17) 8:42 AM EDT (5/17)
Length of Visible Light 14h 58m
Length of Day
14h 02m
Waning Gibbous, 89% of the Moon is Illuminated
May 17
Waning Gibbous
May 21
Last Quarter
May 28
New
Jun 5
First Quarter
Jun 13
Full

Hourly Weather History & Observations

Time (EDT) Temp. Dew Point Humidity Pressure Visibility Wind Dir Wind Speed Gust Speed Precip Events Conditions
12:58 AM 64.9 °F 51.1 °F 61% 30.02 in 10.0 mi West 11.5 mph - N/A   Clear
1:58 AM 64.0 °F 50.0 °F 60% 30.02 in 10.0 mi West 9.2 mph - N/A   Clear
2:58 AM 64.0 °F 50.0 °F 60% 30.01 in 10.0 mi WNW 12.7 mph - N/A   Clear
3:58 AM 62.1 °F 50.0 °F 65% 30.04 in 10.0 mi WNW 17.3 mph - N/A   Clear
4:58 AM 60.1 °F 48.9 °F 67% 30.06 in 10.0 mi WNW 16.1 mph - N/A   Clear
5:58 AM 59.0 °F 50.0 °F 72% 30.08 in 10.0 mi NW 17.3 mph - N/A   Clear
6:58 AM 59.0 °F 50.0 °F 72% 30.09 in 10.0 mi NW 12.7 mph - N/A   Clear
7:58 AM 61.0 °F 48.9 °F 64% 30.12 in 10.0 mi NW 17.3 mph 31.1 mph N/A   Clear
8:58 AM 64.0 °F 50.0 °F 60% 30.12 in 10.0 mi NW 11.5 mph - N/A   Clear
9:58 AM 66.0 °F 44.1 °F 45% 30.14 in 10.0 mi NNW 16.1 mph - N/A   Clear
10:58 AM 68.0 °F 41.0 °F 37% 30.14 in 10.0 mi NNW 16.1 mph - N/A   Clear
11:58 AM 69.1 °F 41.0 °F 36% 30.14 in 10.0 mi WNW 15.0 mph 23.0 mph N/A   Clear
12:58 PM 71.1 °F 39.9 °F 32% 30.14 in 10.0 mi WNW 12.7 mph - N/A   Clear
1:58 PM 71.1 °F 41.0 °F 34% 30.12 in 10.0 mi NNW 10.4 mph - N/A   Clear
2:58 PM 71.1 °F 41.0 °F 34% 30.12 in 10.0 mi NW 8.1 mph - N/A   Clear
3:58 PM 73.0 °F 41.0 °F 31% 30.11 in 10.0 mi NNW 13.8 mph - N/A   Clear
4:58 PM 72.0 °F 41.0 °F 33% 30.11 in 10.0 mi NNW 12.7 mph - N/A   Clear
5:58 PM 72.0 °F 42.1 °F 34% 30.11 in 10.0 mi NNW 15.0 mph - N/A   Clear
6:58 PM 71.1 °F 42.1 °F 35% 30.12 in 10.0 mi NNW 13.8 mph - N/A   Clear
7:58 PM 66.0 °F 44.1 °F 45% 30.14 in 10.0 mi North 4.6 mph - N/A   Clear
8:58 PM 64.0 °F 45.0 °F 50% 30.15 in 10.0 mi Calm Calm - N/A   Clear
9:58 PM 60.1 °F 48.0 °F 64% 30.17 in 10.0 mi Calm Calm - N/A   Clear
10:58 PM 57.9 °F 48.0 °F 70% 30.17 in 9.0 mi Calm Calm - N/A   Clear
11:58 PM 57.0 °F 48.0 °F 72% 30.17 in 6.0 mi Calm Calm - N/A   Haze